Yankton, SD

8:24 PM CST on December 15, 2019 (GMT -0600)
Gurney Municipal

Weather History for KYKN - November, 2019

Change the Weather History Date:

Friday, November 15, 2019

  Actual Average Record
Temperature  
Mean Temperature 43 °F -  
Max Temperature 61 °F 45 °F 77 °F (1953)
Min Temperature 25 °F 24 °F -13 °F (1959)
Degree Days  
Heating Degree Days 22    
Moisture  
Dew Point 30 °F    
Average Humidity 69    
Maximum Humidity 92    
Minimum Humidity 35    
Precipitation  
Precipitation 0.00 in - - ()
Sea Level Pressure  
Sea Level Pressure 30.23 in    
Wind  
Wind Speed 7 mph (ESE)    
Max Wind Speed 21 mph    
Max Gust Speed 28 mph    
Visibility 10 miles    
Events      
Averages and records for this station are not official NWS values.
T = Trace of Precipitation, MM = Missing Value Source: NWS Daily Summary

Daily Weather History Graph

Daily Weather History Graph

Search for Another Location

Airport or City:

Astronomy

Nov. 15, 2019 Rise Set
Actual Time 7:21 AM CST 5:06 PM CST
Civil Twilight 6:50 AM CST 5:36 PM CST
Nautical Twilight 6:16 AM CST 6:11 PM CST
Astronomical Twilight 5:43 AM CST 6:44 PM CST
Moon 7:40 PM CST (11/15) 10:21 AM CST (11/15)
Length of Visible Light 10h 45m
Length of Day
9h 44m
Waning Gibbous, 90% of the Moon is Illuminated
Nov 15
Waning Gibbous
Nov 19
Last Quarter
Nov 26
New
Dec 4
First Quarter
Dec 11
Full

Hourly Weather History & Observations

Time (CST) Temp. Windchill Dew Point Humidity Pressure Visibility Wind Dir Wind Speed Gust Speed Precip Events Conditions
12:56 AM 36.0 °F 33.3 °F 28.9 °F 76% 30.33 in 10.0 mi SSE 3.5 mph - N/A   Clear
1:56 AM 28.0 °F 22.8 °F 26.1 °F 92% 30.33 in 10.0 mi East 4.6 mph - N/A   Clear
2:56 AM 26.1 °F - 24.1 °F 92% 30.32 in 10.0 mi Calm Calm - N/A   Clear
3:56 AM 25.0 °F 20.7 °F 23.0 °F 92% 30.30 in 10.0 mi SE 3.5 mph - N/A   Clear
4:56 AM 27.0 °F 19.5 °F 25.0 °F 92% 30.30 in 10.0 mi ESE 6.9 mph - N/A   Clear
5:56 AM 28.0 °F 21.7 °F 26.1 °F 92% 30.30 in 10.0 mi East 5.8 mph - N/A   Clear
6:56 AM 26.1 °F 20.5 °F 24.1 °F 92% 30.30 in 10.0 mi East 4.6 mph - N/A   Clear
7:56 AM 26.1 °F 20.5 °F 24.1 °F 92% 30.30 in 10.0 mi ENE 4.6 mph - N/A   Clear
8:56 AM 33.1 °F 28.7 °F 30.0 °F 89% 30.30 in 10.0 mi East 4.6 mph - N/A   Clear
9:56 AM 37.9 °F 33.5 °F 33.1 °F 83% 30.28 in 10.0 mi East 5.8 mph - N/A   Clear
10:56 AM 41.0 °F 35.8 °F 32.0 °F 70% 30.27 in 10.0 mi East 8.1 mph - N/A   Clear
11:56 AM 46.9 °F - 34.0 °F 61% 30.24 in 10.0 mi East 8.1 mph - N/A   Clear
12:56 PM 57.0 °F - 35.1 °F 44% 30.19 in 10.0 mi ESE 10.4 mph - N/A   Clear
1:56 PM 60.1 °F - 34.0 °F 38% 30.17 in 10.0 mi SSE 18.4 mph 24.2 mph N/A   Clear
2:56 PM 61.0 °F - 33.1 °F 35% 30.14 in 10.0 mi SSE 20.7 mph 27.6 mph N/A   Clear
3:56 PM 57.9 °F - 34.0 °F 41% 30.15 in 10.0 mi SE 13.8 mph - N/A   Clear
4:56 PM 54.0 °F - 35.1 °F 49% 30.15 in 10.0 mi SE 13.8 mph - N/A   Clear
5:56 PM 50.0 °F - 33.1 °F 52% 30.16 in 10.0 mi SE 11.5 mph - N/A   Clear
6:56 PM 48.0 °F - 33.1 °F 56% 30.17 in 10.0 mi SE 10.4 mph - N/A   Clear
7:56 PM 46.0 °F 41.4 °F 32.0 °F 58% 30.17 in 10.0 mi ESE 9.2 mph - N/A   Clear
8:56 PM 44.1 °F 38.6 °F 32.0 °F 63% 30.17 in 10.0 mi ESE 10.4 mph - N/A   Clear
9:56 PM 43.0 °F 36.4 °F 30.9 °F 62% 30.16 in 10.0 mi SE 12.7 mph - N/A   Clear
10:56 PM 42.1 °F 35.7 °F 30.9 °F 65% 30.14 in 10.0 mi SE 11.5 mph - N/A   Clear
11:56 PM 42.1 °F 35.2 °F 30.9 °F 65% 30.13 in 10.0 mi SSE 12.7 mph - N/A   Clear